Location: Newark
(34.6283°N, 36.0776°E)
Time: 03:13:13
(UTC+00:00)

A-11 Canister half - Pass Details

Date: 25 September 2019
Orbit: 1527 x 1682 km, 47.3° (Epoch: 15 October)

Event Time Altitude Azimuth Distance (km) Brightness Sun altitude
Rises 02:37:25 0° 278° (W) 4,695 - -10.7°
Exits shadow 02:40:22 - 285° (WNW) 3,838 10.5 -10.1°
Reaches altitude 10° 02:40:45 10° 287° (WNW) 3,727 10.4 -10.0°
Maximum altitude 02:49:27 39° 354° (N) 2,206 9.8 -8.2°
Drops below altitude 10° 02:58:24 10° 61° (ENE) 3,835 12.3 -6.4°
Sets 03:01:54 0° 69° (ENE) 4,844 13.3 -5.7°
